Погода в Гёреме

Турция     38°38′39″N   34°49′50″E
темп.,
°C
ветер,
м/с
пор.,
м/с
влажн.,
%
обл.,
%
осадки,
мм/ч
давл.,
гПа
погр.,
м
16 мая, пн
пн1600:00+10зсз128510 0.0 101874
03:00+9з22895 0.0 101833
06:00+9зюз22881 0.0 101923
09:00+14св12561 0.0 1020768
12:00+18сз244467 0.0 10181830
15:00+17ссз234954 0.0 1018898
18:00+18ссв235397 0.0 1017457
21:00+14юв116343 0.0 101710
17 мая, вт
вт1700:00+14с01636 0.0 101711
03:00+12ссз11705 0.0 101610
06:00+12ссз127288 0.3 101737
09:00+13с1167100 0.3 1018271
12:00+17ссв22509 0.0 10161295
15:00+20с44424 0.2 10151813
18:00+18с234678 0.1 1014975
21:00+15в22601 0.1 101622
18 мая, ср
ср1800:00+13в11660 0.0 101611
03:00+12вюв11680 0.0 101411
06:00+12юв11690 0.0 101510
09:00+18ю12420 0.0 1014616
12:00+22з33290 0.0 10132145
15:00+24з55275 0.0 10112691
18:00+23з46284 0.0 10112640
21:00+18зюз243884 0.0 101152
19 мая, чт
чт1900:00+16с245842 0.4 1014181
03:00+13ссз3473100 0.6 1016161
06:00+9с358398 2.6 1020387
09:00+8ссз4665100 2.9 1023872
12:00+8ссв4670100 0.2 1025738
15:00+13св564042 0.2 10221720
18:00+13св88395 0.0 10211805
21:00+9св511510 0.0 1024420
20 мая, пт
пт2000:00+6св35660 0.0 1025140
03:00+4ссв22700 0.0 102642
06:00+3ссв11730 0.0 102729
09:00+8св25480 0.0 1026787
12:00+14ссв45340 0.0 10241383
15:00+17ссв56290 0.0 10211710
18:00+17ссв66310 0.0 10211609
21:00+11всв33470 0.0 102222